Flag for Canada Weather past 2 weeks in Stephenville, Newfoundland and Labrador, Canada

Now
70 °F

Scattered clouds.


Feels Like: 70 °F
Forecast: 57 / 72 °F
Wind: 13 mph from West

Location: Stephenville

Current Time: Jul 22, 2014 at 3:02:34 PM

Latest Report: Jul 22, 2014 at 1:30 PM


Visibility: 15 mi

Pressure: 29.98 "Hg

Humidity: 69%

Dew point: 59 °F

Location of StephenvilleLocation

Historic Weather in Stephenville — Graph

°F

Stephenville temperature yesterday

Maximum temperature yesterday: 73 °F (at 3:30 PM)
Minimum temperature yesterday: 57 °F (at 12:30 AM)
Average temperature yesterday: 65 °F

Past Weeks' High & Low Weather Summary

 TemperatureHumidityPressure
High82 °F (Jul 9, 2:30 PM)94% (Jul 8, 5:30 AM)30.28 "Hg (Jul 8, 5:30 AM)
Low54 °F (Jul 20, 5:30 AM)41% (Jul 21, 3:30 PM)29.71 "Hg (Jul 7, 1:30 PM)
Average66 °F77%29.99 "Hg
* Reported Jul 7 1:30 PM — Jul 22 1:30 PM, Stephenville, Weather by CustomWeather, © 2014

Note: Actual official high and low records may vary slightly from our data, if they occured in-between our weather recording intervals... More about our weather records

Advertising

Stephenville weather history for previous 24 hours

 ConditionsComfort  
Time TempWeatherWind HumidityBarometerVisibility
1:30 PM
Jul 22
70 °FScattered clouds.13 mph69%29.98 "Hg15 mi
12:30 PM70 °FBroken clouds.10 mph69%30.01 "Hg15 mi
11:30 AM68 °FPartly sunny.12 mph69%30.02 "Hg15 mi
10:30 AM70 °FBroken clouds.10 mph69%30.02 "Hg15 mi
9:30 AM66 °FBroken clouds.5 mph68%30.03 "Hg15 mi
8:30 AM64 °FBroken clouds.No wind64%30.03 "Hg15 mi
7:30 AM61 °FBroken clouds.5 mph72%30.04 "Hg15 mi
6:30 AM57 °FPartly sunny.No wind77%30.05 "Hg15 mi
5:30 AM57 °FPassing clouds.No wind77%30.05 "Hg15 mi
4:30 AM57 °FPassing clouds.No wind77%30.06 "Hg15 mi
3:30 AM57 °FPassing clouds.No wind77%30.07 "Hg15 mi
2:30 AM59 °FPassing clouds.No wind77%30.09 "Hg15 mi
1:30 AM61 °FPassing clouds.No wind77%30.09 "Hg15 mi
12:30 AM61 °FPassing clouds.No wind77%30.10 "Hg15 mi
11:30 PM
Jul 21
63 °FPassing clouds.No wind73%30.11 "Hg15 mi
10:30 PM64 °FPassing clouds.No wind64%30.12 "Hg15 mi
9:30 PM64 °FBroken clouds.No wind68%30.13 "Hg15 mi
8:30 PM66 °FPartly sunny.10 mph64%30.13 "Hg15 mi
7:30 PM68 °FBroken clouds.9 mph64%30.14 "Hg15 mi
6:30 PM72 °FBroken clouds.14 mph50%30.14 "Hg15 mi
5:30 PM72 °FBroken clouds.15 mph50%30.14 "Hg15 mi
4:30 PM72 °FBroken clouds.16 mph50%30.16 "Hg15 mi
3:30 PM73 °FBroken clouds.15 mph41%30.17 "Hg15 mi
Weather by CustomWeather, © 2014

See weather overviewHow to use our weather pages